#timestamp,LO_Frequency,Hit,StdDev 
1681322415.8,286047005.8,P
1681322435.6,286047007.6,Y
1681322455.5,286046999.9,P
1681322475.3,286047000.5,N
1681322495.1,286047002.2,N
1681322515.9,286047002.3,N
1681322535.7,286046998.7,N
1681322555.6,286046999.6,N
1681322575.4,286046998.9,N
1681322595.2,286046997.0,N
1681322615.1,286046999.4,N
1681322616.0,286046999.4,N
1681322635.8,286046998.6,N
1681322655.6,286046998.5,N
1681322675.5,286046998.1,N
1681322695.3,286046998.8,N
1681322715.2,286046998.7,N
1681322735.9,286047000.4,N
1681322755.7,286047002.7,N
1681322775.6,286047000.2,N
1681322795.4,286047002.6,N
1681322815.2,286046999.9,N
1681322835.1,286047002.7,N
1681322836.0,286047002.7,N
1681322855.8,286047000.4,N
1681322875.6,286047000.2,N
1681322895.5,286047000.8,N
1681322915.3,286047001.2,N
1681322935.2,286046998.2,N
1681322955.9,286047000.7,N
1681322975.7,286046999.4,N
1681322995.6,286046999.2,N
1681323015.4,286046997.0,N
1681323035.2,286046995.1,Y
1681323055.1,286046995.8,P
1681323056.0,286046995.8,N
1681323075.8,286046997.4,N
1681323095.7,286046997.7,N
1681323115.5,286046996.6,N
1681323135.3,286046999.3,N
1681323155.2,286046999.5,N
1681323175.0,286046999.0,N
1681323175.9,286046999.0,N
1681323195.7,286046998.3,N
1681323215.6,286046998.8,N
1681323235.4,286046999.1,N
1681323255.3,286046999.5,N
1681323275.1,286046999.0,N
1681323276.0,286046999.0,N
1681323295.8,286046999.4,N
1681323315.7,286046999.4,N
1681323335.5,286046999.0,N
1681323355.3,286046996.5,N
1681323375.2,286046996.9,N
1681323395.0,286046998.2,N
1681323395.9,286046998.2,N
1681323415.8,286046998.2,N
1681323435.6,286047000.8,N
1681323455.4,286046998.1,N
1681323475.3,286047001.1,N
1681323495.1,286046998.3,N
1681323515.8,286046998.9,N
1681323535.7,286046999.2,N
1681323555.5,286046999.0,N
1681323575.3,286046998.3,N
1681323595.2,286046997.8,N
1681323615.0,286046995.2,Y
1681323615.9,286046995.2,P
1681323635.8,286046996.9,N
1681323655.6,286046996.5,N
1681323675.4,286046996.9,N
1681323695.3,286046996.0,Y
1681323715.1,286046999.0,P
1681323735.9,286046999.2,N
1681323755.7,286046995.8,P
1681323775.5,286046995.4,Y
1681323795.4,286046997.2,P
1681323815.2,286046995.9,P
1681323835.0,286046993.5,P
1681323835.9,286046993.5,Y
1681323855.8,286046999.1,P
1681323875.6,286046999.5,N
1681323895.5,286047000.9,N
1681323915.3,286046999.9,N
1681323935.1,286047002.4,N
1681323955.9,286047002.1,N
1681323975.7,286047002.6,N
1681323995.5,286047002.6,N
1681324015.4,286047001.8,N
1681324035.2,286047001.6,N
1681324055.1,286047004.0,N
1681324056.0,286047004.0,N
1681324075.8,286047002.2,N
1681324095.6,286047002.1,N
1681324115.5,286047004.4,N
1681324135.3,286047003.9,N
1681324155.1,286047003.1,N
1681324175.9,286047003.1,N
1681324195.7,286047006.0,N
1681324215.5,286047004.1,N
1681324235.4,286047003.1,N
1681324255.2,286047005.1,N
1681324275.1,286047005.9,N
1681324276.0,286047005.9,N
1681324295.8,286047005.9,N
1681324315.6,286047005.8,N
1681324335.5,286047004.5,N
1681324355.3,286047006.1,N
1681324375.1,286047006.2,N
1681324395.9,286047007.4,Y
1681324415.7,286047003.4,P
1681324435.6,286047001.4,P
1681324455.4,286047004.0,P
1681324475.2,286047003.0,Y
1681324495.1,286047004.4,P
1681324496.0,286047004.4,P
1681324515.8,286047002.6,P
1681324535.6,286047001.6,N
1681324555.5,286047000.3,N
1681324575.3,286047004.3,N
1681324595.2,286047005.9,Y
1681324615.9,286046998.8,P
1681324635.7,286046999.0,N
1681324655.6,286046999.4,N
1681324675.4,286046995.6,N
1681324695.2,286046993.5,N
1681324715.1,286046994.7,N
1681324716.0,286046994.7,N
1681324735.8,286046992.6,N
1681324755.7,286046990.7,N
1681324775.5,286046990.6,N
1681324795.3,286046989.3,N
1681324815.2,286046989.8,N
1681324835.0,286046988.7,N
1681324835.9,286046988.7,N
1681324855.7,286046989.3,N
1681324875.6,286046989.8,N
1681324895.4,286046987.5,N
1681324915.3,286046991.2,N
1681324935.1,286046989.9,N
1681324936.0,286046989.9,N
1681324955.8,286046989.4,N
1681324975.7,286046990.0,N
1681324995.5,286046988.1,N
1681325015.3,286046985.5,Y
1681325035.2,286046994.5,P
1681325055.0,286046993.8,P
1681325055.9,286046993.8,P
1681325075.8,286046996.0,Y
1681325095.6,286047001.9,P
1681325115.4,286047003.7,N
1681325135.3,286047004.2,N
1681325155.1,286047003.3,N
1681325175.8,286047002.9,N
1681325195.7,286047002.9,N
1681325215.5,286047004.9,N
1681325235.4,286047006.0,N
1681325255.2,286047007.6,N
1681325275.0,286047006.6,N
1681325275.9,286047006.6,N
1681325295.8,286047007.1,N
1681325315.6,286047006.5,N
1681325335.4,286047006.2,N
1681325355.3,286047010.3,Y
1681325375.1,286047006.1,P
1681325395.9,286047008.6,P
1681325415.7,286047007.8,P
1681325435.5,286047006.9,Y
1681325455.4,286047000.6,P
1681325475.2,286046998.1,N
1681325495.1,286047001.2,N
1681325496.0,286047001.2,N
1681325515.8,286047001.0,N
1681325535.6,286047000.6,N
1681325555.5,286047000.1,N
1681325575.3,286047001.2,N
1681325595.1,286046999.2,N
1681325615.9,286046995.1,N
1681325635.7,286046996.3,N
1681325655.6,286046996.1,N
1681325675.4,286046993.5,N
1681325695.2,286046993.5,N
1681325715.1,286046993.7,N
1681325716.0,286046993.7,N
1681325735.8,286046996.2,N
1681325755.6,286046995.6,N
1681325775.5,286046995.9,N
1681325795.3,286046995.4,N
1681325815.2,286046995.4,N
1681325835.9,286046996.1,N
1681325855.7,286046996.1,N
1681325875.6,286046996.2,N
1681325895.4,286046995.5,N
1681325915.2,286046997.9,N
1681325935.1,286046995.4,N
1681325936.0,286046995.4,N
1681325955.8,286046995.4,N
1681325975.7,286046998.9,N
1681325995.5,286047001.0,N
